[Date Prev][Date Next][Thread Prev][Thread Next] - [Date Index][Thread Index][Author Index]
ISS KEPS - DAY 300
- Subject: [sarex] ISS KEPS - DAY 300
- From: Arthur Rowe <azrowe80@xxxxxxxxxxx>
- Date: Sun, 28 Oct 2007 09:37:13 -0400
ISS (ZARYA)
1 25544U 98067A 07300.90939573 .00014099 00000-0 92667-4 0 2412
2 25544 51.6371 139.4786 0002573 139.5015 1.9355 15.76020103511717
----
Sent via sarex@amsat.org. Opinions expressed are those of the author.
Not an AMSAT member? Join now to support the amateur satellite program!
Subscription settings: http://amsat.org/mailman/listinfo/sarex
AMSAT Home